カタログに戻る

STARLINK-36799

運用中通信VLEO
NORAD 67958·PAYLOAD·🇺🇸 United States

打ち上げ Feb 24, 2026 から Vandenberg Space Force Base

Loading…

次のパス (今後24時間)

TLE

最新Source: CelesTrak SupGP

元期: Sep 14, 2026, 21:17 UTC

1 67958C 26037AC  26257.88729167  .00014043  00000+0  50856-3 0  2578
2 67958  43.0000 202.1179 0001259 262.0593 225.3338 15.27577382    14

AllMySatでSTARLINK-36799をリアルタイム追跡

Download on the App Store